GFSNE_850_thetae_009.txt.gz
Theta_e
297 298 298 298 299 299 299 299 299 299 300 300 301 300 302 302 303 302 305 305 312 321 329 331 330 329 326 327 328 327 327 327 325 318 314 311 309 307
298 298 299 299 299 299 299 300 300 300 300 300 301 301 302 303 303 303 305 305 310 322 329 331 330 329 326 328 327 327 327 328 322 316 314 311 309 307
298 298 299 299 299 299 299 300 300 300 301 301 301 303 303 303 304 305 306 306 312 322 328 331 329 328 326 329 327 328 328 327 319 314 313 311 309 307
298 299 299 299 299 300 300 300 300 300 302 301 301 304 304 305 305 306 306 306 312 323 327 328 329 327 326 328 327 328 329 324 318 313 313 311 309 307
299 299 300 300 300 300 300 300 302 303 303 302 302 304 306 306 307 308 308 309 315 324 326 329 329 327 326 327 327 327 328 321 316 313 313 312 310 307
300 300 300 300 300 300 301 302 302 303 302 303 303 307 306 307 308 308 310 314 318 326 326 329 329 327 325 326 326 327 325 319 315 313 313 312 310 307
300 300 300 299 300 301 301 302 302 302 303 304 307 308 309 308 309 310 312 315 323 326 327 328 328 327 325 326 326 325 322 318 313 314 313 313 310 308
300 300 299 297 297 297 299 300 301 302 304 305 309 311 310 309 309 310 314 316 325 325 328 328 328 326 325 326 325 324 321 318 313 314 313 313 311 309
298 296 297 298 298 299 298 299 302 304 306 307 311 312 312 310 311 310 312 319 325 325 326 328 328 326 325 325 325 324 321 318 314 313 313 313 312 309
296 297 297 298 298 298 299 301 303 305 306 309 312 313 313 311 313 314 314 317 327 328 327 326 326 325 324 324 325 324 320 319 314 313 313 313 312 310
297 297 297 297 297 299 301 302 305 305 307 310 312 313 312 312 314 314 318 322 326 326 326 325 324 325 324 324 325 323 318 319 315 313 314 314 312 309
297 297 297 298 298 300 301 304 303 305 306 310 314 313 313 314 314 317 321 324 324 324 324 323 323 324 323 324 323 321 316 317 316 312 313 314 312 310
297 297 297 297 298 301 302 302 303 304 306 310 314 314 313 315 315 319 322 322 322 322 321 322 319 322 321 321 319 317 315 311 316 312 313 313 311 310
297 298 297 297 299 300 300 302 304 304 307 309 314 315 314 314 316 319 322 323 323 323 321 321 321 320 321 320 319 316 314 309 314 313 314 313 312 311
298 298 297 297 298 299 300 301 304 304 304 308 312 315 316 316 316 319 321 322 323 322 323 323 319 320 321 321 321 317 314 309 310 314 313 314 314 312
298 297 296 297 298 298 300 302 303 303 302 305 309 315 317 317 317 319 320 321 322 321 322 322 322 318 320 321 322 321 316 312 309 314 312 313 313 311
298 297 296 297 298 298 300 301 303 303 302 306 311 316 317 317 317 319 320 320 320 320 319 319 320 319 318 317 321 322 320 316 312 313 313 312 314 312
297 296 296 297 298 298 300 300 302 303 302 306 312 317 318 318 317 319 320 320 320 319 318 318 317 314 314 315 315 319 319 318 315 312 314 313 316 314
296 296 296 297 298 298 299 299 300 303 302 307 309 317 319 318 317 321 319 318 319 319 319 319 317 314 312 312 313 313 317 318 315 312 314 315 317 316
296 295 296 297 298 299 299 299 300 303 303 305 310 316 319 318 319 321 320 319 319 319 320 318 315 313 311 311 311 311 313 314 314 313 314 315 315 312
295 295 296 296 298 298 299 299 300 302 302 303 306 315 320 319 321 322 320 319 319 320 319 317 315 313 312 311 311 311 311 312 313 314 314 316 316 317
295 295 295 296 298 299 299 299 300 302 302 304 305 314 319 319 322 322 321 319 320 321 320 319 317 314 313 312 310 310 311 312 313 312 313 315 319 320
295 295 295 296 298 299 298 298 300 301 303 304 308 312 319 321 322 322 321 321 321 321 320 320 317 314 314 314 312 311 311 312 314 313 312 312 316 319

GFSNE_850_thetae_015.txt.gz
Theta_e
296 296 296 295 295 296 297 298 298 299 300 300 300 300 300 300 301 302 302 304 304 304 303 303 303 307 308 316 328 332 327 327 326 325 327 321 313 310
296 296 296 295 295 296 298 298 299 299 299 300 300 300 300 301 301 302 302 303 304 304 304 304 303 306 310 313 327 331 328 327 326 324 324 316 312 310
296 296 294 295 296 298 299 300 300 300 300 300 300 300 301 301 302 301 303 304 304 305 305 304 304 307 309 312 325 329 327 326 326 325 321 314 312 310
295 294 294 297 298 300 300 300 299 299 299 299 300 300 300 300 302 303 304 304 305 306 304 303 305 306 310 322 331 328 328 325 325 325 317 312 311 309
294 294 296 299 299 300 300 299 299 299 299 299 299 299 300 301 303 303 304 304 306 305 304 304 305 310 313 324 327 329 325 326 325 323 314 312 311 309
294 296 298 299 299 299 299 299 299 299 299 300 300 300 300 303 304 304 305 306 306 305 304 305 306 311 317 324 327 328 326 326 325 320 313 312 312 309
295 297 298 298 298 299 298 299 299 299 299 300 300 300 302 303 305 304 307 306 306 306 305 306 309 312 320 327 325 328 327 326 324 316 312 312 311 309
297 297 296 296 296 296 298 299 299 299 300 299 300 302 304 304 305 306 307 307 307 307 307 306 312 314 324 327 329 328 326 326 322 313 313 313 311 309
296 296 296 296 297 297 297 298 298 298 300 301 302 303 304 306 305 306 309 309 308 308 307 311 312 323 328 327 328 327 327 326 319 313 313 313 311 310
296 296 296 296 296 297 298 298 299 299 300 301 303 304 304 305 307 308 310 310 308 311 310 316 322 327 326 328 328 328 328 325 316 314 314 313 311 310
296 296 296 296 297 299 299 299 299 299 300 304 304 304 307 308 312 311 311 309 309 313 315 321 326 326 327 329 328 327 327 320 315 314 314 313 311 310
296 296 297 297 298 299 299 299 300 299 304 303 305 307 310 313 312 311 310 309 313 315 319 323 326 326 320 327 327 326 324 317 313 314 314 314 312 311
296 296 297 297 298 299 299 299 299 302 303 304 305 306 309 314 314 314 313 312 314 315 321 323 323 325 323 319 324 325 321 316 311 312 313 313 312 311
297 297 298 298 298 296 296 297 299 302 303 304 303 304 308 314 314 315 314 315 314 316 320 325 324 325 324 323 322 324 320 314 311 313 314 313 311 311
296 297 298 298 296 296 296 297 298 301 302 302 302 305 309 313 314 315 317 317 316 319 322 324 324 324 325 323 321 321 318 312 310 313 314 315 316 314
296 297 298 297 296 295 296 297 298 301 301 302 303 307 310 314 314 316 318 317 319 321 323 325 325 323 324 324 325 321 318 314 310 310 314 315 315 313
297 297 296 296 296 295 296 297 297 300 301 303 303 307 310 313 315 315 318 317 319 322 323 324 323 323 324 324 324 322 317 318 316 314 314 316 316 315
297 297 296 296 295 295 296 297 297 299 301 303 303 305 309 312 316 316 317 319 319 320 323 321 324 323 323 322 324 323 319 317 317 316 316 315 317 317
295 295 295 295 295 295 296 297 297 299 300 302 303 304 307 312 314 318 317 319 319 320 321 322 323 323 321 318 321 323 322 316 316 315 316 316 317 318
294 294 295 295 294 295 295 296 298 298 300 302 303 304 306 310 315 317 317 319 320 320 320 321 323 322 322 321 321 322 322 321 317 314 315 315 315 315
294 294 294 294 294 295 295 296 297 298 299 301 303 303 305 308 313 317 316 318 319 317 317 320 322 321 320 321 320 320 321 319 319 318 316 314 314 313
294 294 294 294 294 295 296 297 298 298 298 300 302 303 303 306 312 316 317 317 317 319 320 320 320 320 319 318 318 320 320 319 317 317 316 315 313 313
294 294 294 294 294 295 297 297 298 298 297 299 302 303 303 307 311 317 317 318 318 319 320 321 320 319 318 318 318 318 319 320 321 319 314 312 312 312

GFSNE_850_thetae_021.txt.gz
Theta_e
303 302 303 302 302 302 301 301 301 301 301 301 302 303 303 303 303 303 303 303 303 304 304 304 306 307 307 308 309 306 307 305 304 310 319 330 327 326
303 303 303 302 301 301 301 301 301 301 302 302 303 303 303 303 303 302 302 302 303 303 304 304 306 307 307 308 309 307 305 304 304 317 321 323 327 327
303 302 302 301 301 300 300 300 301 302 303 303 303 303 302 302 302 302 303 303 303 303 304 304 305 306 306 307 307 307 305 305 306 309 320 323 328 327
302 301 301 301 300 300 300 301 302 303 303 302 302 302 302 301 302 302 301 303 304 303 304 305 306 306 306 306 306 307 306 305 305 305 316 319 328 326
302 301 301 301 300 300 301 302 302 302 302 302 302 302 302 302 302 301 301 302 303 303 305 305 306 307 307 306 306 307 307 308 309 307 311 318 327 325
301 301 300 300 300 301 302 302 302 302 301 301 301 300 301 301 302 302 304 303 303 304 305 305 307 307 306 306 307 306 307 306 307 308 310 318 326 325
301 300 299 300 301 302 302 301 301 301 301 300 301 300 301 301 302 303 303 303 304 304 304 305 307 307 306 307 307 307 306 306 305 309 314 318 325 326
301 300 300 301 302 302 301 301 301 301 300 300 301 300 301 302 302 302 303 303 304 304 305 305 308 307 307 306 306 306 306 305 306 310 314 324 325 325
300 301 301 301 301 300 300 301 300 301 301 302 301 302 302 302 302 303 304 305 305 305 305 305 307 308 307 307 307 304 303 304 305 312 317 325 325 317
301 301 301 301 301 300 300 300 301 301 301 301 302 302 302 302 304 304 304 304 306 307 307 307 309 309 308 307 306 307 313 312 311 316 321 326 321 307
301 301 301 301 301 300 300 300 301 301 300 301 301 301 303 303 304 304 305 308 310 309 309 309 310 309 309 308 312 315 314 313 316 322 326 322 307 306
301 300 300 300 299 298 299 301 301 300 300 298 300 302 303 305 307 308 311 311 312 310 309 310 311 309 312 317 320 316 317 316 325 325 321 307 306 306
300 300 301 301 300 299 298 300 300 299 297 301 301 303 304 306 312 314 313 312 309 310 315 312 313 314 319 318 318 320 323 325 324 319 306 306 306 307
300 300 302 301 300 299 300 298 298 297 301 300 302 303 304 307 313 314 315 314 314 315 318 315 314 318 319 318 317 325 325 324 316 305 305 305 306 307
300 301 301 301 299 298 300 299 298 300 300 301 302 303 304 307 312 315 315 316 318 320 321 315 317 319 318 318 317 322 322 313 306 305 305 307 309 308
296 297 298 299 299 299 299 299 299 300 300 300 302 303 305 309 313 316 318 318 320 319 321 318 315 320 319 320 319 318 316 307 304 305 306 309 309 309
300 300 300 300 300 300 299 299 299 299 299 300 301 304 304 309 313 316 318 318 319 319 319 321 320 320 321 321 320 319 309 306 305 305 306 308 308 309
299 299 299 299 299 299 299 298 298 299 298 300 301 303 303 307 311 316 318 319 320 318 319 319 320 321 315 314 317 316 309 308 306 306 307 309 309 310
297 298 299 299 299 299 298 298 298 298 298 300 301 303 303 306 310 314 316 317 319 318 319 320 319 317 317 314 312 311 310 310 309 308 309 309 311 310
297 298 298 298 298 298 297 297 297 297 297 299 300 302 303 304 309 312 315 316 318 317 317 317 320 320 322 316 311 310 309 309 310 311 310 310 311 311
298 297 297 297 297 297 297 296 296 296 298 299 300 301 303 303 307 310 313 316 318 318 317 317 319 321 321 319 317 313 310 309 310 312 313 313 314 313
297 297 297 297 297 297 297 296 297 298 298 299 299 300 302 303 305 309 312 314 315 318 319 319 321 321 322 321 319 317 314 310 309 311 313 314 315 315
297 296 296 296 296 296 296 296 297 298 298 298 299 299 300 302 304 306 310 313 316 316 318 320 320 320 321 322 319 317 315 314 313 312 312 312 313 314

GFSNE_850_thetae_024.txt.gz
Theta_e
303 302 301 301 301 301 300 300 301 301 300 299 300 300 301 302 303 303 303 302 303 303 302 304 304 304 305 307 307 308 309 310 310 311 310 309 325 330
302 301 301 300 300 300 300 300 300 300 300 299 300 301 302 303 302 302 302 302 302 302 303 303 303 304 305 306 307 307 308 307 312 310 311 312 320 329
302 301 301 301 301 301 300 299 299 300 300 301 302 303 303 302 302 302 301 301 302 301 302 303 303 303 304 305 306 306 307 308 311 308 310 317 319 327
302 301 301 301 300 299 299 299 299 301 302 303 303 302 302 301 302 301 300 301 302 301 303 303 303 304 305 305 306 306 306 307 308 308 306 309 320 319
302 301 301 300 300 300 300 300 301 302 302 302 302 302 301 301 300 301 301 301 302 303 304 304 304 305 305 305 306 306 306 307 307 305 304 308 318 325
302 301 301 301 301 300 299 300 301 302 302 301 301 300 300 300 300 300 301 302 302 302 303 304 305 305 306 306 307 306 307 307 307 305 305 307 314 323
302 301 301 300 300 299 300 300 300 300 300 300 300 300 300 300 301 301 302 302 302 303 304 305 304 305 305 306 307 307 307 307 307 305 307 308 315 315
301 301 300 300 300 300 301 302 302 302 301 301 300 301 301 301 302 302 303 302 303 304 304 304 304 305 306 307 308 307 307 307 306 307 308 309 312 315
301 300 300 300 301 301 301 300 301 301 301 302 302 301 301 302 302 301 303 305 305 304 305 304 304 305 305 307 307 307 307 307 306 307 307 308 315 316
299 300 300 301 301 301 300 299 299 298 300 302 301 301 301 301 301 303 303 303 304 306 307 305 306 305 307 308 307 306 306 307 305 306 306 310 316 317
300 301 301 301 300 300 300 299 298 299 301 299 297 297 300 302 303 303 304 303 304 308 311 309 308 307 308 308 308 307 306 306 306 305 310 313 317 322
300 300 301 300 300 300 299 297 298 299 298 296 298 299 302 305 306 306 307 305 305 308 309 309 309 309 310 309 308 306 305 305 305 306 314 316 320 324
300 301 300 301 301 301 300 298 299 300 297 300 300 300 303 305 309 312 313 313 307 311 311 310 310 310 308 309 309 307 307 308 311 311 314 316 322 323
300 300 300 301 301 301 299 298 300 299 299 300 299 302 303 306 310 313 312 315 313 317 316 313 312 309 310 316 311 313 313 312 313 314 316 321 320 309
300 300 300 301 301 300 298 300 298 298 299 300 298 302 303 306 311 314 315 316 318 316 314 316 314 315 317 316 315 314 313 314 317 319 321 316 308 307
298 298 299 299 298 299 300 299 299 298 299 299 299 302 304 307 312 313 317 317 317 316 317 318 317 317 315 315 314 314 315 314 319 319 309 307 307 307
296 296 300 300 299 300 300 299 298 298 299 298 300 301 304 307 312 313 317 317 317 316 316 317 318 318 316 315 316 316 318 314 308 306 307 307 308 308
296 299 300 300 299 299 299 298 297 297 298 297 300 301 304 306 310 313 317 316 317 317 317 316 319 319 318 317 318 315 310 307 306 307 309 310 310 309
296 298 299 299 299 299 298 297 297 297 296 297 300 301 303 305 307 312 315 316 315 317 318 318 319 320 319 317 311 310 309 306 306 307 309 310 309 308
296 297 298 299 298 298 297 297 296 296 297 298 299 300 302 305 306 310 313 315 317 318 319 319 320 320 320 315 309 307 307 308 307 308 308 308 309 309
297 298 298 297 297 297 297 296 297 297 297 298 299 299 301 304 305 307 311 314 316 317 317 319 319 318 321 318 311 307 307 305 306 308 309 309 310 310
298 297 297 297 297 296 296 296 297 297 298 297 298 299 300 303 304 306 309 313 315 316 316 318 318 318 319 319 312 309 310 308 308 309 310 311 312 312
297 296 296 296 296 296 296 296 297 297 297 297 297 298 299 300 304 305 307 311 314 316 317 318 318 319 319 316 314 310 309 309 310 310 311 312 313 315

GFSNE_850_thetae_030.txt.gz
Theta_e
313 311 309 308 306 305 304 303 302 302 301 300 299 299 298 298 299 300 301 300 300 300 301 302 303 304 304 305 305 305 306 307 308 308 310 312 314 315
313 311 309 308 306 305 304 303 302 301 300 299 299 299 298 299 300 301 301 300 300 300 300 300 299 302 304 304 304 305 305 307 307 308 309 310 313 314
313 311 309 308 306 304 303 302 302 301 300 299 299 298 299 299 300 301 300 299 299 298 298 298 299 300 301 304 304 305 305 305 305 307 309 309 310 313
313 311 309 307 306 304 303 302 301 300 300 299 298 298 299 299 300 300 299 297 297 297 298 298 299 300 301 302 302 302 302 304 304 305 308 308 309 311
314 311 309 307 306 304 303 302 301 301 300 299 298 299 299 299 300 299 298 298 299 299 299 300 301 302 303 303 303 304 305 305 304 305 306 307 308 310
314 310 309 307 306 304 302 302 301 300 300 299 299 299 299 300 299 299 299 299 298 297 298 300 301 303 303 303 304 305 304 305 305 306 305 306 307 309
313 310 308 307 306 304 302 302 301 300 300 299 299 300 300 300 298 299 300 298 296 297 301 304 305 306 305 304 304 304 304 305 306 305 306 306 307 308
312 309 308 306 305 303 302 301 300 300 299 300 300 301 300 298 300 300 298 296 297 301 304 304 305 305 305 305 305 305 305 305 305 306 307 307 307 307
311 308 307 305 303 302 302 301 301 300 302 301 300 300 299 299 300 297 296 298 302 304 303 303 304 305 305 305 305 305 305 305 305 306 307 307 307 306
310 308 306 305 303 302 301 302 303 303 301 300 300 298 298 298 296 297 299 302 304 305 305 304 307 307 306 305 306 306 306 305 306 307 307 307 307 307
308 306 305 303 302 301 300 300 300 300 300 299 298 298 297 296 297 299 303 303 304 304 306 304 304 305 305 305 307 306 306 305 307 307 308 307 306 309
306 305 303 302 301 300 300 300 300 299 299 298 298 296 296 296 299 304 306 303 303 302 306 304 303 303 305 306 306 306 305 306 307 307 307 307 308 308
305 303 302 301 300 300 300 300 299 299 298 299 297 296 295 297 306 308 310 306 304 304 309 303 305 306 306 306 305 305 306 307 307 307 306 308 309 311
303 302 301 301 300 301 300 300 300 299 300 297 296 296 295 305 308 312 315 314 313 313 314 306 306 307 308 306 308 307 307 307 307 307 307 309 314 316
303 302 301 300 301 300 300 300 299 299 298 296 296 295 302 306 312 313 315 315 313 313 312 310 306 308 307 307 308 306 307 307 307 306 307 311 315 316
302 300 300 300 300 300 300 299 299 298 297 296 295 298 304 308 313 314 315 313 311 310 309 308 307 308 309 309 309 307 307 306 306 306 311 313 314 316
300 300 300 300 300 299 298 299 299 298 296 295 296 300 305 309 313 314 314 312 311 311 311 309 309 309 308 307 308 307 307 305 306 311 314 315 315 317
299 300 300 300 298 298 299 299 298 296 295 297 298 300 305 309 313 314 314 312 311 311 310 310 309 308 309 307 306 307 308 307 310 313 316 317 317 317
300 300 299 297 299 299 299 298 295 296 297 297 298 300 304 309 312 313 314 312 312 311 310 310 309 309 309 309 309 310 310 311 312 314 316 316 317 312
300 298 297 299 299 299 298 296 296 296 297 297 299 300 304 308 311 313 314 314 313 313 312 311 311 311 310 310 311 312 312 314 315 316 317 315 308 308
297 297 298 298 299 298 296 296 296 297 296 296 297 299 302 307 310 312 313 314 315 314 313 312 313 313 312 312 312 311 312 315 317 316 309 307 309 308
297 297 298 298 298 297 295 296 296 296 296 295 296 298 300 304 308 311 313 314 315 316 315 315 314 315 316 316 314 312 312 313 309 308 309 308 308 307
297 298 298 298 297 296 295 296 296 296 296 295 295 295 298 302 305 308 311 312 314 315 316 316 316 315 315 317 318 316 308 307 309 310 309 308 309 308

GFSNE_850_thetae_036.txt.gz
Theta_e
310 313 315 315 314 312 312 312 311 308 308 307 306 305 303 303 303 303 300 299 299 299 299 300 300 301 300 300 300 304 306 308 308 308 309 309 309 311
311 312 313 314 314 313 311 312 311 310 308 307 306 304 303 302 302 300 299 298 298 299 300 301 301 300 299 298 298 299 299 304 307 308 308 308 309 309
310 311 311 312 313 314 312 310 311 310 308 307 305 304 302 300 299 299 299 298 298 299 300 300 300 299 298 297 297 298 298 300 305 306 306 307 309 309
308 309 310 310 310 311 312 310 311 310 309 307 305 304 303 301 300 299 299 298 299 299 299 299 299 298 298 298 297 298 298 298 298 305 305 307 308 308
303 308 309 309 310 310 310 311 310 310 309 307 305 304 302 301 300 299 298 298 298 298 299 299 298 297 298 298 298 298 298 299 299 300 304 306 306 308
300 303 306 309 309 309 309 311 310 309 308 307 305 303 302 301 300 299 298 298 298 299 299 298 297 297 297 297 297 297 298 299 300 301 302 301 302 304
300 301 304 307 309 310 311 311 310 308 307 306 304 303 302 301 300 299 298 298 299 299 298 297 296 296 296 297 299 300 301 300 301 302 303 303 304 305
302 302 303 306 308 310 311 312 310 309 307 306 305 303 302 301 299 299 299 300 299 298 297 296 296 298 305 306 306 306 306 306 305 304 303 303 304 306
303 305 303 304 307 309 308 308 308 309 307 307 305 303 301 300 299 299 299 299 298 297 297 296 296 300 307 308 308 308 307 307 306 306 305 305 305 305
303 304 302 305 308 309 310 307 307 307 305 304 302 301 300 300 300 299 299 298 297 296 296 296 300 307 308 309 310 310 309 307 306 305 305 305 304 305
302 302 302 307 308 308 309 306 306 305 304 303 301 300 300 301 300 299 298 299 296 296 295 298 308 308 308 307 307 306 305 307 307 306 305 305 304 305
302 302 305 307 308 308 307 305 306 304 303 301 301 300 301 300 299 298 297 296 295 298 307 306 307 306 304 306 308 307 305 306 306 306 305 305 305 306
302 303 305 306 307 306 306 305 305 303 302 302 301 300 299 298 298 296 295 299 304 305 309 304 304 304 304 304 306 305 304 304 306 306 305 305 306 306
301 304 305 305 306 306 306 304 303 302 301 300 300 299 298 297 295 298 306 309 308 306 308 305 303 303 303 303 306 305 305 306 305 306 306 307 307 307
303 304 305 306 305 306 304 302 301 300 300 299 298 297 295 296 304 309 311 309 307 306 305 307 306 303 303 304 306 305 306 306 305 305 307 308 307 307
300 304 305 305 304 302 301 300 300 300 299 298 296 295 299 306 309 309 310 311 308 306 305 307 305 303 305 306 306 305 305 306 305 306 307 307 307 309
304 306 304 302 300 300 300 300 299 299 298 295 295 301 306 309 309 311 311 310 308 306 307 306 307 307 307 306 306 307 306 306 306 306 306 308 310 313
304 302 301 301 300 300 300 299 299 296 296 296 301 304 307 309 311 311 310 309 307 307 307 307 306 306 306 306 306 306 306 306 307 308 309 311 313 315
300 300 301 300 300 299 299 298 296 296 296 300 301 305 308 310 311 310 310 309 308 308 308 306 306 306 306 306 306 306 306 307 308 309 311 312 313 315
300 300 300 300 298 299 297 296 296 296 298 299 301 306 308 310 310 310 310 308 308 308 307 306 306 306 307 306 306 306 307 308 309 312 312 313 314 312
300 300 298 299 298 296 296 296 295 296 297 298 302 306 308 308 309 311 311 310 307 307 308 306 306 307 307 306 307 308 308 309 310 314 314 315 313 311
298 298 299 298 297 296 296 296 295 294 295 297 301 306 307 308 308 310 310 310 308 308 307 306 306 307 306 307 307 308 310 312 312 314 315 316 314 310
298 298 298 297 296 296 296 295 294 294 294 295 299 304 306 308 309 310 310 310 310 309 309 308 307 308 307 308 310 310 311 312 313 314 313 309 307 306

GFSNE_850_thetae_042.txt.gz
Theta_e
306 307 308 309 310 309 309 311 311 311 313 314 311 311 313 312 309 308 306 306 305 305 304 304 302 300 300 300 300 301 301 302 302 308 309 309 310 311
305 306 307 308 309 310 310 309 310 310 311 314 315 311 311 312 311 308 306 305 305 304 304 303 301 300 299 299 299 300 301 301 301 300 301 302 307 310
304 305 306 307 308 309 310 310 309 310 310 311 312 313 309 310 310 310 306 305 304 304 303 303 300 299 299 299 299 300 300 300 300 299 298 298 299 308
303 305 306 306 306 307 309 310 309 309 310 310 312 312 308 308 311 310 306 304 304 304 303 302 300 299 299 299 299 299 299 300 299 298 298 298 299 308
303 304 305 305 305 305 307 309 309 309 307 309 312 311 308 307 307 309 306 304 303 303 302 300 299 299 299 299 299 298 300 300 299 298 298 298 300 306
303 304 304 304 305 305 306 306 308 308 307 308 310 311 308 306 305 308 306 303 303 302 300 299 300 299 299 299 299 299 300 299 298 298 298 298 298 298
303 303 303 303 303 304 305 306 307 307 306 306 308 309 308 306 304 305 306 305 303 303 302 302 300 299 299 299 299 300 300 298 298 297 297 297 298 298
301 302 302 302 302 303 304 305 306 306 306 307 308 309 307 306 305 306 306 305 305 304 303 304 303 300 299 299 299 300 298 297 297 297 297 297 298 299
301 302 302 301 301 302 303 304 305 307 307 307 307 309 309 309 306 305 306 305 305 305 304 304 303 302 299 299 300 298 297 297 300 305 307 306 306 304
301 301 301 301 301 301 302 303 305 306 307 309 308 309 308 310 306 306 307 306 305 304 303 303 303 303 303 301 298 297 297 300 306 309 309 308 308 307
300 300 300 300 300 301 301 302 303 305 308 306 308 309 309 310 305 305 305 305 305 304 304 303 303 303 302 301 299 302 306 308 308 309 310 310 309 307
299 299 299 300 300 301 301 302 303 305 306 306 308 308 307 309 304 304 304 305 304 304 304 304 304 302 304 306 309 309 311 311 312 312 312 311 310 307
298 299 299 300 300 301 302 302 303 305 305 306 307 308 307 306 302 302 304 304 304 304 303 302 300 303 305 307 308 308 308 308 309 310 311 310 309 307
298 299 300 300 301 302 302 303 305 304 306 307 306 306 304 303 304 303 303 301 300 299 302 300 301 306 306 304 304 307 307 307 307 307 308 308 307 307
299 300 301 301 302 303 303 303 303 305 306 305 305 304 304 304 303 303 301 299 298 297 302 307 305 305 305 304 304 305 306 306 305 306 306 306 307 306
301 301 301 302 303 303 303 303 305 307 306 304 304 304 303 302 301 300 299 297 302 308 306 306 305 305 304 304 304 304 305 306 305 305 305 306 306 306
300 301 300 301 304 303 305 306 306 305 304 302 303 302 301 300 300 302 301 308 308 308 306 305 306 307 306 304 304 305 306 306 306 306 306 306 306 306
300 303 302 303 301 305 305 304 304 302 302 301 301 300 300 302 302 306 308 308 308 307 307 306 305 304 304 304 305 306 305 306 306 306 306 306 306 307
301 302 301 302 303 301 300 301 301 300 300 299 299 301 300 305 308 309 309 308 307 307 307 307 306 306 306 306 305 306 306 306 306 307 307 307 308 308
300 300 300 300 300 300 299 299 298 297 298 299 301 304 307 308 309 309 309 307 308 306 306 307 306 306 307 306 306 306 306 306 307 308 308 308 308 308
299 299 299 299 299 298 297 297 297 298 300 303 304 306 307 308 309 309 308 309 308 306 306 306 307 306 306 306 307 308 307 307 307 307 307 308 308 309
298 298 297 296 296 296 296 296 298 300 302 303 304 305 307 309 309 308 309 307 308 306 306 306 306 306 307 307 307 307 308 307 307 307 308 308 309 310
296 296 295 295 294 294 294 295 298 301 302 303 303 304 306 309 308 309 307 307 307 306 306 307 306 306 306 307 307 308 307 308 308 310 311 311 312 313

GFSNE_850_thetae_045.txt.gz
Theta_e
306 308 307 307 308 309 311 310 310 311 311 312 315 314 312 311 311 311 311 310 308 307 305 305 304 304 303 301 300 301 301 304 305 304 306 303 305 308
304 307 306 307 307 308 310 311 310 310 311 313 313 315 314 312 311 311 310 310 308 307 306 305 304 304 303 301 300 300 300 301 301 301 301 301 301 300
303 306 306 306 306 307 308 310 311 310 310 311 312 314 314 312 310 310 309 309 308 307 306 305 304 304 303 301 300 300 299 300 300 301 301 301 300 299
302 304 305 305 305 307 307 308 310 310 310 310 311 312 314 313 310 309 310 308 307 307 306 305 304 304 303 300 300 300 300 299 300 300 301 300 299 299
302 302 303 304 305 306 306 306 308 309 310 309 310 310 312 312 310 308 309 308 307 307 306 305 304 303 303 300 299 300 300 299 299 299 301 300 299 299
302 302 302 302 304 305 305 305 306 307 308 308 308 309 310 312 309 308 307 308 307 306 306 305 304 303 302 300 300 299 299 299 299 300 300 299 299 299
301 302 303 303 304 304 305 305 305 306 307 308 307 308 308 310 310 307 307 307 307 307 305 305 304 302 301 300 300 300 300 299 299 300 300 298 298 298
300 302 303 303 303 303 304 304 304 306 307 306 307 306 307 309 309 306 307 307 307 306 305 304 304 303 302 301 301 300 300 300 300 300 299 298 297 297
300 300 302 302 302 302 302 303 304 304 305 306 307 305 308 308 309 307 307 306 306 307 307 304 304 304 304 303 301 301 300 300 300 298 298 298 298 298
299 301 301 301 302 302 302 302 302 304 305 306 306 307 306 307 309 307 307 308 307 307 306 305 305 304 304 303 301 300 300 299 298 297 298 299 305 306
299 299 301 301 302 302 302 301 302 301 302 304 306 306 307 307 309 308 306 306 306 306 306 305 305 304 304 303 302 301 300 298 297 297 298 304 309 308
299 300 300 300 301 301 301 301 302 301 301 302 304 306 307 306 308 308 306 306 306 306 306 305 305 304 304 303 301 300 302 306 307 303 305 307 308 308
299 299 300 300 300 300 301 300 301 301 302 302 304 306 307 307 307 309 306 305 305 306 306 305 304 304 304 304 304 307 309 309 311 311 311 309 309 309
298 298 298 299 300 301 301 301 301 302 303 304 305 305 306 308 308 308 306 305 305 305 305 305 304 302 303 303 303 306 308 309 308 309 310 311 311 311
297 297 298 299 300 301 301 302 303 303 304 304 305 304 306 307 307 306 304 304 304 304 305 304 302 301 299 302 305 306 306 307 307 307 308 307 309 309
298 299 299 299 300 301 301 302 303 304 303 304 304 306 306 306 304 304 303 303 304 304 302 299 300 305 306 306 305 305 304 306 306 306 307 307 306 307
298 299 300 300 301 301 301 303 304 304 304 304 304 305 305 304 304 303 303 302 301 300 303 307 306 305 305 305 305 304 304 305 306 306 306 306 306 306
299 300 301 300 300 301 301 303 302 303 304 304 306 304 303 303 302 301 301 301 300 307 308 306 304 306 305 304 304 304 305 306 307 306 306 306 306 307
300 300 300 301 301 302 302 303 304 304 305 304 303 302 301 301 302 302 301 303 308 309 307 306 305 304 304 305 305 305 306 306 307 307 307 306 306 306
299 299 299 299 299 299 300 300 300 300 300 300 300 301 301 302 301 302 305 307 309 307 307 306 307 306 305 306 306 307 306 306 306 306 306 306 307 307
298 298 298 298 298 299 299 299 300 300 300 299 299 299 300 301 305 306 307 309 308 307 307 307 307 306 307 306 305 306 307 306 306 307 308 309 309 310
297 297 296 297 297 297 297 297 298 298 300 301 302 304 305 306 307 309 308 308 307 306 306 307 307 306 306 306 307 307 308 307 308 308 308 308 309 309
295 295 295 295 295 296 297 298 300 300 301 302 302 304 305 307 309 308 308 308 307 307 306 306 306 306 306 307 307 308 308 307 307 307 308 308 308 309

GFSNE_850_thetae_048.txt.gz
Theta_e
303 303 304 304 307 307 308 309 310 311 310 311 314 314 315 312 312 312 311 311 309 307 307 306 305 305 304 303 302 302 305 314 314 314 313 310 307 304
302 303 302 303 306 307 307 307 308 310 310 309 310 311 312 313 314 311 311 312 310 309 307 306 305 305 304 303 303 301 301 302 305 307 303 302 302 301
302 303 302 302 303 307 307 307 308 308 310 309 309 310 312 312 312 311 311 311 311 310 308 306 306 305 304 304 304 302 300 301 301 301 300 301 301 301
302 303 302 302 304 306 306 306 306 307 308 310 310 309 312 313 311 311 310 310 310 309 308 307 306 305 304 304 304 303 300 300 300 300 300 300 301 301
301 302 302 302 303 304 305 305 306 306 306 308 309 309 309 311 311 312 309 309 308 309 308 307 306 305 305 304 304 303 300 300 299 300 300 299 300 301
300 301 302 302 302 303 304 305 305 305 305 306 307 309 307 308 310 311 310 309 308 308 309 308 307 306 305 304 304 303 301 300 300 300 299 299 300 300
299 301 301 302 302 302 302 303 304 305 306 305 306 307 307 307 308 310 309 309 309 308 310 309 308 307 305 304 304 303 301 300 300 300 300 299 300 300
299 299 299 300 302 303 302 305 303 304 305 305 305 306 307 306 306 308 309 308 307 309 307 307 308 308 306 304 304 302 301 301 300 300 300 299 300 299
298 299 300 299 300 300 301 305 303 304 304 304 304 305 306 305 305 307 309 308 307 308 308 307 307 307 306 305 304 303 302 302 301 300 300 300 300 299
298 299 300 299 300 300 300 301 303 303 302 302 302 304 305 305 305 306 308 308 307 307 307 306 306 307 306 305 305 304 304 303 301 300 300 300 298 298
298 298 299 299 299 300 302 302 302 302 302 303 304 304 304 304 304 306 308 307 307 307 307 307 306 306 306 305 305 304 303 301 300 300 299 298 298 297
297 298 298 299 299 301 302 302 301 301 301 301 301 300 304 305 305 306 307 308 306 306 307 307 306 306 305 305 304 304 302 301 301 299 298 298 297 297
297 298 298 298 300 302 302 301 301 300 300 301 300 300 301 303 305 306 306 308 307 306 307 307 306 306 305 304 304 303 302 302 300 303 306 305 301 301
297 297 298 299 300 300 301 301 301 300 300 300 300 302 302 304 306 306 307 307 307 306 307 306 306 306 305 305 304 303 302 305 307 306 309 311 311 310
298 298 298 299 299 300 300 301 301 301 300 300 301 302 303 304 304 304 306 307 307 305 306 306 305 305 305 304 303 302 300 303 307 308 309 310 310 310
298 299 298 298 297 297 297 299 301 301 301 302 302 303 303 304 304 306 306 307 306 304 305 306 305 304 304 303 302 301 301 307 307 307 308 307 307 307
296 297 297 298 298 299 299 299 301 301 302 303 304 304 304 304 305 306 306 306 305 305 305 305 305 304 303 300 301 304 305 304 304 305 306 306 306 306
297 297 297 298 299 299 300 300 301 301 302 303 304 304 303 304 305 305 304 304 304 304 304 304 303 302 304 305 304 304 304 305 305 305 305 305 306 306
299 299 300 300 300 300 300 300 300 301 303 305 304 303 303 304 305 305 304 304 304 303 302 302 305 305 305 305 305 304 304 305 306 306 306 306 306 306
299 299 299 299 300 301 301 301 300 300 301 302 303 303 305 304 303 302 302 302 302 301 302 307 306 305 304 305 305 305 305 306 306 305 306 306 306 306
297 297 297 297 298 298 299 300 301 302 303 303 302 302 302 302 302 302 302 302 302 304 307 306 306 306 305 306 305 305 305 306 306 306 306 307 307 306
295 295 296 296 297 297 298 299 299 299 299 300 300 300 300 301 302 301 301 302 305 307 306 306 307 306 306 305 305 304 306 306 306 307 307 307 307 309
295 295 295 296 297 298 299 299 299 299 299 300 300 299 300 300 299 302 303 307 307 307 307 307 306 307 306 306 306 306 306 307 308 307 308 309 309 309